Simultaneous Nadir Overpasses (SNOs) Predictions

Prediction of SNOs between TERRA and METOP-C Satellite Orbit:

Table of predicted SNOs for the next 14.0 days since TLE Epoch: 2/19/2022
Index Date (TERRA) Time (TERRA) Lat,Lon (TERRA) SZA (TERRA ) Date (METOP-C) Time (METOP-C) Lat,Lon (METOP-C) SZA (METOP-C ) Distance(km) Time Diff (sec)
1 02/20/2022 07:59:36 81.20, 102.71 93.98 02/20/2022 07:58:39 81.20, 102.59 93.95 2.16 57
2 02/20/2022 08:49:02 -81.22, -89.38 86.00 02/20/2022 08:49:19 -81.22, -89.34 85.99 0.78 17
3 02/23/2022 03:33:44 81.21, 169.25 92.99 02/23/2022 03:32:59 81.20, 169.28 92.97 0.77 45
4 02/23/2022 04:23:11 -81.20, -23.19 87.04 02/23/2022 04:23:41 -81.20, -23.38 87.05 3.32 30
5 02/25/2022 23:07:53 81.21,-124.28 91.96 02/25/2022 23:07:21 81.20,-124.43 91.93 2.95 32
6 02/25/2022 23:57:20 -81.21, 43.31 88.06 02/25/2022 23:58:02 -81.21, 43.31 88.04 0.50 42
7 02/28/2022 18:42:02 81.21, -57.88 90.91 02/28/2022 18:41:42 81.21, -57.80 90.91 1.34 20
8 02/28/2022 19:31:29 -81.21, 109.73 89.11 02/28/2022 19:32:24 -81.21, 109.58 89.10 2.51 55
9 03/03/2022 14:16:10 81.20, 8.45 89.84 03/03/2022 14:16:03 81.20, 8.42 89.83 0.43 7



Historial Predications of SNOs between TERRA and METOP-C
